Location: lozzo di cadore
(46.4899°N, 12.4508°E)
Time: 14:19:29
(UTC+02:00)

Envisat - Pass Details

Date: 07 May 2025
Orbit: 761 x 763 km, 98.3° (Epoch: 14 May)

Event Time Altitude Azimuth Distance (km) Brightness Sun altitude
Rises 03:02:36 0° 26° (NNE) 3,233 7.8 -21.5°
Reaches altitude 10° 03:05:25 10° 41° (NE) 2,302 6.6 -21.3°
Maximum altitude 03:09:19 22° 92° (E) 1,620 5.0 -20.9°
Drops below altitude 10° 03:13:12 10° 143° (SE) 2,289 5.3 -20.6°
Enters shadow 03:13:28 - 145° (SE) 2,370 5.3 -20.5°
